Meteo Giornale » Osservazioni meteo Repubblica Ceca » Praha-Ruzyne

ore: 08:30 - Osservazioni Meteo Praha-Ruzyne
Lat. 50° 6' N Lon. 14° 15' E Alt. 365 metri s.l.m.

poco_nuvoloso Europe/Prague

24 °C

Poco Nuvoloso

Temp. 24 Ore

21 °C

36 °C

Nord-Ovest

14.8 Km/h

Dew point 16 °C

Umidità 60 %

Visibilità  10 Km

Il sole sorge alle ore 04:53

Il sole tramonta alle ore 21:18

Data e Ora Cielo e Fenomeni T °C DP °C Um. % Pres. hPa Vis. km Vento km/h
Oggi h: 08:30 poco_nuvoloso Poco Nuvoloso 24 16 60 1023 10 NO 14.8
Oggi h: 08:00 sereno Sereno 23 16 64 1023 10 N/NO 16.7
Oggi h: 07:30 sereno Sereno 23 15 60 1023 10 N/NO 16.7
Oggi h: 07:00 sereno Sereno 22 16 68 1023 10 NO 13
Oggi h: 06:00 sereno Sereno 21 17 77 1023 10 NO 13
Oggi h: 05:30 sereno Sereno 21 17 77 1022 10 NO 14.8
Oggi h: 05:00 sereno Sereno 21 16 73 1022 10 NO 9.3
Oggi h: 04:30 sereno Sereno 22 17 73 1022 10 O/NO 7.4
Oggi h: 04:00 sereno Sereno 23 16 64 1022 10 NO 9.3
Oggi h: 03:30 sereno Sereno 23 17 68 1022 10 O/NO 11.1
Oggi h: 03:00 sereno Sereno 24 17 64 1022 10 NO 14.8
Oggi h: 02:30 sereno Sereno 24 17 64 1022 10 O/NO 13
Oggi h: 02:00 sereno Sereno 25 17 61 1022 10 NO 16.7
Oggi h: 01:30 sereno Sereno 25 17 61 1022 10 NO 14.8
Oggi h: 01:00 sereno Sereno 25 17 61 1022 10 O/NO 9.3
Oggi h: 00:30 sereno Sereno 25 17 61 1021 10 O/NO 11.1
Oggi h: 00:00 sereno Sereno 25 17 61 1021 10 O/NO 11.1
Ieri h: 23:30 sereno Sereno 25 18 65 1021 10 O 11.1
Ieri h: 23:00 sereno Sereno 25 18 65 1021 10 O 9.3
Ieri h: 22:30 sereno Sereno 26 18 61 1021 10 N 5.5
Ieri h: 22:00 sereno Sereno 28 17 51 1021 10 N 5.5
Ieri h: 21:30 sereno Sereno 29 17 48 1021 10 N 7.4
Ieri h: 21:00 sereno Sereno 30 17 45 1021 10 N/NO 9.3
Ieri h: 20:30 sereno Sereno 31 18 45 1021 10 NO 11.1
Ieri h: 20:00 sereno Sereno 33 18 41 1020 10 O 9.3
Ieri h: 19:30 sereno Sereno 34 17 36 1020 10 O 11.1
Ieri h: 19:00 sereno Sereno 34 17 36 1021 10 O 14.8
Ieri h: 18:00 sereno Sereno 35 16 32 1021 10 O 14.8
Ieri h: 17:00 sereno Sereno 36 15 28 1021 10 O 16.7
Ieri h: 16:30 sereno Sereno 35 14 28 1021 10 O/SO 11.1
Ieri h: 16:00 sereno Sereno 35 15 30 1022 10 O 9.3
Ieri h: 15:30 sereno Sereno 35 15 30 1022 10 O 9.3
Ieri h: 15:00 sereno Sereno 35 15 30 1022 10 O/SO 16.7
Ieri h: 14:30 sereno Sereno 35 15 30 1022 10 O 13
Ieri h: 14:00 sereno Sereno 35 15 30 1023 10 O 14.8
Ieri h: 13:30 sereno Sereno 34 15 32 1023 10 O 16.7
Ieri h: 13:00 sereno Sereno 34 16 34 1023 10 O 11.1
Ieri h: 12:30 sereno Sereno 33 17 38 1023 10 O 11.1
Ieri h: 12:00 sereno Sereno 32 18 43 1023 10 O/SO 13
Ieri h: 11:30 poco_nuvoloso Poco Nuvoloso 31 19 48 1024 10 O/SO 11.1
Ieri h: 11:00 poco_nuvoloso Poco Nuvoloso 30 20 55 1024 10 SO 7.4
Ieri h: 10:30 sereno Sereno 29 19 54 1024 10 N 5.5
Ieri h: 10:00 sereno Sereno 28 19 58 1024 10 N 5.5